Year,Month,Day,Hour,Minute,Value (Times are PST for temperature in C)
2012,08,16,00,00,20.30
2012,08,16,00,01,20.30
2012,08,16,00,02,20.30
2012,08,16,00,03,20.30
2012,08,16,00,04,20.30
2012,08,16,00,05,20.30
2012,08,16,00,06,20.30
2012,08,16,00,07,20.30
2012,08,16,00,08,20.30
2012,08,16,00,09,20.30
2012,08,16,00,10,20.30
2012,08,16,00,11,20.30
2012,08,16,00,12,20.30
2012,08,16,00,16,20.30
2012,08,16,00,17,20.30
2012,08,16,00,18,20.30
2012,08,16,00,19,20.30
2012,08,16,00,20,20.40
2012,08,16,00,21,20.40
2012,08,16,00,22,20.40
2012,08,16,00,23,20.40
2012,08,16,00,24,20.40
2012,08,16,00,25,20.40
2012,08,16,00,26,20.40
2012,08,16,00,27,20.40
2012,08,16,00,28,20.40
2012,08,16,00,29,20.40
2012,08,16,00,30,20.40
2012,08,16,00,31,20.40
2012,08,16,00,32,20.40
2012,08,16,00,33,20.40
2012,08,16,00,34,20.40
2012,08,16,00,35,20.40
2012,08,16,00,36,20.40
2012,08,16,00,37,20.40
2012,08,16,00,38,20.50
2012,08,16,00,39,20.50
2012,08,16,00,40,20.50
2012,08,16,00,41,20.50
2012,08,16,00,42,20.50
2012,08,16,00,43,20.50
2012,08,16,00,44,20.50
2012,08,16,00,45,20.50
2012,08,16,00,46,20.40
2012,08,16,00,47,20.40
2012,08,16,00,48,20.40
2012,08,16,00,49,20.40
2012,08,16,00,50,20.40
2012,08,16,00,51,20.40
2012,08,16,00,52,20.40
2012,08,16,00,53,20.40
2012,08,16,00,54,20.30
2012,08,16,00,55,20.30
2012,08,16,00,56,20.30
2012,08,16,00,57,20.30
2012,08,16,00,58,20.20
2012,08,16,00,59,20.20
2012,08,16,01,00,20.20
2012,08,16,01,01,20.20
2012,08,16,01,02,20.20
2012,08,16,01,03,20.20
2012,08,16,01,04,20.20
2012,08,16,01,05,20.20
2012,08,16,01,06,20.20
2012,08,16,01,07,20.10
2012,08,16,01,08,20.10
2012,08,16,01,09,20.10
2012,08,16,01,10,20.10
2012,08,16,01,11,20.10
2012,08,16,01,12,20.00
2012,08,16,01,13,19.90
2012,08,16,01,14,19.90
2012,08,16,01,15,19.90
2012,08,16,01,16,19.90
2012,08,16,01,17,19.90
2012,08,16,01,18,19.90
2012,08,16,01,19,19.80
2012,08,16,01,20,19.80
2012,08,16,01,21,19.80
2012,08,16,01,22,19.80
2012,08,16,01,23,19.70
2012,08,16,01,24,19.70
2012,08,16,01,25,19.70
2012,08,16,01,26,19.70
2012,08,16,01,27,19.60
2012,08,16,01,28,19.60
2012,08,16,01,29,19.60
2012,08,16,01,30,19.60
2012,08,16,01,31,19.60
2012,08,16,01,32,19.50
2012,08,16,01,33,19.50
2012,08,16,01,34,19.50
2012,08,16,01,35,19.50
2012,08,16,01,36,19.40
2012,08,16,01,37,19.40
2012,08,16,01,38,19.40
2012,08,16,01,39,19.40
2012,08,16,01,40,19.30
2012,08,16,01,41,19.30
2012,08,16,01,42,19.30
2012,08,16,01,43,19.30
2012,08,16,01,44,19.20
2012,08,16,01,45,19.20
2012,08,16,01,46,19.20
2012,08,16,01,47,19.20
2012,08,16,01,48,19.10
2012,08,16,01,49,19.10
2012,08,16,01,50,19.10
2012,08,16,01,51,19.10
2012,08,16,01,52,19.10
2012,08,16,01,53,19.10
2012,08,16,01,54,19.10
2012,08,16,01,55,19.10
2012,08,16,01,56,19.10
2012,08,16,01,57,19.10
2012,08,16,01,58,19.10
2012,08,16,01,59,19.10
2012,08,16,02,00,19.00
2012,08,16,02,01,18.90
2012,08,16,02,02,18.90
2012,08,16,02,03,18.90
2012,08,16,02,04,18.90
2012,08,16,02,05,18.90
2012,08,16,02,06,18.90
2012,08,16,02,07,18.90
2012,08,16,02,08,18.90
2012,08,16,02,09,18.90
2012,08,16,02,10,18.90
2012,08,16,02,11,18.90
2012,08,16,02,12,18.90
2012,08,16,02,13,18.90
2012,08,16,02,14,18.90
2012,08,16,02,15,18.90
2012,08,16,02,16,18.80
2012,08,16,02,17,18.80
2012,08,16,02,18,18.80
2012,08,16,02,19,18.80
2012,08,16,02,20,18.80
2012,08,16,02,21,18.80
2012,08,16,02,22,18.80
2012,08,16,02,23,18.80
2012,08,16,02,24,18.80
2012,08,16,02,25,18.80
2012,08,16,02,26,18.80
2012,08,16,02,27,18.70
2012,08,16,02,28,18.70
2012,08,16,02,29,18.70
2012,08,16,02,30,18.70
2012,08,16,02,31,18.70
2012,08,16,02,32,18.70
2012,08,16,02,33,18.70
2012,08,16,02,34,18.70
2012,08,16,02,35,18.70
2012,08,16,02,36,18.70
2012,08,16,02,37,18.60
2012,08,16,02,38,18.60
2012,08,16,02,39,18.60
2012,08,16,02,40,18.60
2012,08,16,02,41,18.60
2012,08,16,02,42,18.60
2012,08,16,02,43,18.60
2012,08,16,02,44,18.60
2012,08,16,02,45,18.60
2012,08,16,02,46,18.60
2012,08,16,02,47,18.60
2012,08,16,02,48,18.60
2012,08,16,02,49,18.60
2012,08,16,02,50,18.60
2012,08,16,02,51,18.60
2012,08,16,02,52,18.60
2012,08,16,02,53,18.60
2012,08,16,02,54,18.60
2012,08,16,02,55,18.60
2012,08,16,02,56,18.60
2012,08,16,02,57,18.60
2012,08,16,02,58,18.50
2012,08,16,02,59,18.50
2012,08,16,03,00,18.50
2012,08,16,03,01,18.50
2012,08,16,03,02,18.50
2012,08,16,03,03,18.50
2012,08,16,03,04,18.50
2012,08,16,03,05,18.50
2012,08,16,03,06,18.50
2012,08,16,03,07,18.50
2012,08,16,03,08,18.50
2012,08,16,03,09,18.50
2012,08,16,03,10,18.50
2012,08,16,03,11,18.50
2012,08,16,03,12,18.50
2012,08,16,03,13,18.50
2012,08,16,03,14,18.50
2012,08,16,03,15,18.50
2012,08,16,03,16,18.50
2012,08,16,03,17,18.40
2012,08,16,03,18,18.40
2012,08,16,03,19,18.40
2012,08,16,03,20,18.40
2012,08,16,03,21,18.40
2012,08,16,03,22,18.40
2012,08,16,03,23,18.40
2012,08,16,03,24,18.40
2012,08,16,03,25,18.40
2012,08,16,03,26,18.40
2012,08,16,03,27,18.40
2012,08,16,03,28,18.40
2012,08,16,03,29,18.40
2012,08,16,03,30,18.40
2012,08,16,03,31,18.40
2012,08,16,03,32,18.40
2012,08,16,03,33,18.40
2012,08,16,03,34,18.40
2012,08,16,03,35,18.40
2012,08,16,03,36,18.50
2012,08,16,03,37,18.50
2012,08,16,03,38,18.50
2012,08,16,03,39,18.50
2012,08,16,03,40,18.50
2012,08,16,03,41,18.50
2012,08,16,03,42,18.50
2012,08,16,03,43,18.60
2012,08,16,03,44,18.60
2012,08,16,03,45,18.60
2012,08,16,03,46,18.60
2012,08,16,03,47,18.60
2012,08,16,03,48,18.60
2012,08,16,03,49,18.60
2012,08,16,03,50,18.50
2012,08,16,03,51,18.50
2012,08,16,03,52,18.50
2012,08,16,03,53,18.50
2012,08,16,03,54,18.50
2012,08,16,03,55,18.50
2012,08,16,03,56,18.50
2012,08,16,03,57,18.50
2012,08,16,03,58,18.50
2012,08,16,03,59,18.50
2012,08,16,04,00,18.50
2012,08,16,04,01,18.50
2012,08,16,04,02,18.50
2012,08,16,04,03,18.50
2012,08,16,04,04,18.50
2012,08,16,04,05,18.50
2012,08,16,04,06,18.50
2012,08,16,04,07,18.50
2012,08,16,04,08,18.50
2012,08,16,04,09,18.40
2012,08,16,04,10,18.40
2012,08,16,04,11,18.40
2012,08,16,04,12,18.40
2012,08,16,04,13,18.40
2012,08,16,04,14,18.40
2012,08,16,04,15,18.40
2012,08,16,04,16,18.40
2012,08,16,04,17,18.50
2012,08,16,04,18,18.50
2012,08,16,04,19,18.50
2012,08,16,04,20,18.50
2012,08,16,04,21,18.50
2012,08,16,04,22,18.50
2012,08,16,04,23,18.50
2012,08,16,04,24,18.50
2012,08,16,04,25,18.50
2012,08,16,04,26,18.50
2012,08,16,04,27,18.50
2012,08,16,04,28,18.50
2012,08,16,04,29,18.50
2012,08,16,04,30,18.50
2012,08,16,04,31,18.60
2012,08,16,04,32,18.70
2012,08,16,04,33,18.80
2012,08,16,04,34,18.80
2012,08,16,04,35,18.90
2012,08,16,04,36,18.90
2012,08,16,04,37,18.90
2012,08,16,04,38,19.00
2012,08,16,04,39,19.10
2012,08,16,04,40,19.10
2012,08,16,04,41,19.10
2012,08,16,04,42,19.10
2012,08,16,04,43,19.30
2012,08,16,04,44,19.30
2012,08,16,04,45,19.30
2012,08,16,04,46,19.40
2012,08,16,04,47,19.40
2012,08,16,04,48,19.50
2012,08,16,04,49,19.50
2012,08,16,04,50,19.50
2012,08,16,04,51,19.60
2012,08,16,04,52,19.60
2012,08,16,04,53,19.70
2012,08,16,04,54,19.70
2012,08,16,04,55,19.70
2012,08,16,04,56,19.80
2012,08,16,04,57,19.80
2012,08,16,04,58,19.80
2012,08,16,04,59,19.90
2012,08,16,05,00,19.90
2012,08,16,05,01,19.90
2012,08,16,05,02,19.90
2012,08,16,05,03,19.90
2012,08,16,05,04,19.90
2012,08,16,05,05,19.90
2012,08,16,05,06,19.90
2012,08,16,05,07,20.00
2012,08,16,05,08,20.10
2012,08,16,05,09,20.10
2012,08,16,05,10,20.20
2012,08,16,05,11,20.20
2012,08,16,05,12,20.20
2012,08,16,05,13,20.20
2012,08,16,05,14,20.20
2012,08,16,05,15,20.20
2012,08,16,05,16,20.20
2012,08,16,05,17,20.20
2012,08,16,05,18,20.20
2012,08,16,05,19,20.20
2012,08,16,05,20,20.20
2012,08,16,05,21,20.30
2012,08,16,05,22,20.30
2012,08,16,05,23,20.30
2012,08,16,05,24,20.30
2012,08,16,05,25,20.30
2012,08,16,05,26,20.30
2012,08,16,05,27,20.40
2012,08,16,05,28,20.40
2012,08,16,05,29,20.50
2012,08,16,05,30,20.50
2012,08,16,05,31,20.50
2012,08,16,05,32,20.60
2012,08,16,05,33,20.50
2012,08,16,05,34,20.50
2012,08,16,05,35,20.50
2012,08,16,05,36,20.50
2012,08,16,05,37,20.50
2012,08,16,05,38,20.50
2012,08,16,05,39,20.40
2012,08,16,05,40,20.40
2012,08,16,05,41,20.40
2012,08,16,05,42,20.40
2012,08,16,05,43,20.40
2012,08,16,05,44,20.40
2012,08,16,05,45,20.40
2012,08,16,05,46,20.40
2012,08,16,05,47,20.40
2012,08,16,05,48,20.40
2012,08,16,05,49,20.40
2012,08,16,05,50,20.40
2012,08,16,05,51,20.40
2012,08,16,05,52,20.50
2012,08,16,05,53,20.50
2012,08,16,05,54,20.50
2012,08,16,05,55,20.50
2012,08,16,05,56,20.50
2012,08,16,05,57,20.40
2012,08,16,05,58,20.40
2012,08,16,05,59,20.40
2012,08,16,06,00,20.40
2012,08,16,06,01,20.40
2012,08,16,06,02,20.30
2012,08,16,06,03,20.30
2012,08,16,06,04,20.20
2012,08,16,06,05,20.20
2012,08,16,06,06,20.20
2012,08,16,06,07,20.20
2012,08,16,06,08,20.20
2012,08,16,06,09,20.20
2012,08,16,06,10,20.20
2012,08,16,06,11,20.20
2012,08,16,06,12,20.10
2012,08,16,06,13,20.10
2012,08,16,06,14,20.00
2012,08,16,06,15,19.90
2012,08,16,06,16,19.90
2012,08,16,06,17,19.90
2012,08,16,06,18,19.80
2012,08,16,06,19,19.80
2012,08,16,06,20,19.70
2012,08,16,06,21,19.70
2012,08,16,06,22,19.70
2012,08,16,06,23,19.60
2012,08,16,06,24,19.60
2012,08,16,06,25,19.50
2012,08,16,06,26,19.50
2012,08,16,06,27,19.50
2012,08,16,06,28,19.50
2012,08,16,06,29,19.40
2012,08,16,06,30,19.40
2012,08,16,06,31,19.40
2012,08,16,06,32,19.40
2012,08,16,06,33,19.40
2012,08,16,06,34,19.40
2012,08,16,06,35,19.40
2012,08,16,06,36,19.40
2012,08,16,06,37,19.40
2012,08,16,06,38,19.40
2012,08,16,06,39,19.40
2012,08,16,06,40,19.40
2012,08,16,06,41,19.30
2012,08,16,06,42,19.30
2012,08,16,06,43,19.30
2012,08,16,06,44,19.30
2012,08,16,06,45,19.30
2012,08,16,06,46,19.30
2012,08,16,06,47,19.30
2012,08,16,06,48,19.30
2012,08,16,06,49,19.30
2012,08,16,06,50,19.30
2012,08,16,06,51,19.20
2012,08,16,06,52,19.20
2012,08,16,06,53,19.20
2012,08,16,06,54,19.20
2012,08,16,06,55,19.20
2012,08,16,06,56,19.20
2012,08,16,06,57,19.20
2012,08,16,06,58,19.20
2012,08,16,06,59,19.10
2012,08,16,07,00,19.10
2012,08,16,07,01,19.10
2012,08,16,07,02,19.10
2012,08,16,07,03,19.10
2012,08,16,07,04,19.10
2012,08,16,07,05,19.10
2012,08,16,07,06,19.10
2012,08,16,07,07,19.10
2012,08,16,07,08,19.10
2012,08,16,07,09,19.10
2012,08,16,07,10,19.10
2012,08,16,07,11,19.10
2012,08,16,07,12,19.10
2012,08,16,07,13,19.10
2012,08,16,07,14,19.10
2012,08,16,07,15,19.20
2012,08,16,07,16,19.20
2012,08,16,07,17,19.20
2012,08,16,07,18,19.20
2012,08,16,07,19,19.20
2012,08,16,07,20,19.20
2012,08,16,07,21,19.20
2012,08,16,07,22,19.20
2012,08,16,07,23,19.20
2012,08,16,07,24,19.20
2012,08,16,07,25,19.20
2012,08,16,07,26,19.20
2012,08,16,07,27,19.20
2012,08,16,07,28,19.30
2012,08,16,07,29,19.30
2012,08,16,07,30,19.30
2012,08,16,07,31,19.30
2012,08,16,07,32,19.40
2012,08,16,07,33,19.40
2012,08,16,07,34,19.40
2012,08,16,07,35,19.50
2012,08,16,07,36,19.50
2012,08,16,07,37,19.50
2012,08,16,07,38,19.50
2012,08,16,07,39,19.50
2012,08,16,07,40,19.50
2012,08,16,07,41,19.50
2012,08,16,07,42,19.60
2012,08,16,07,43,19.60
2012,08,16,07,44,19.60
2012,08,16,07,45,19.60
2012,08,16,07,46,19.60
2012,08,16,07,47,19.70
2012,08,16,07,48,19.70
2012,08,16,07,49,19.70
2012,08,16,07,50,19.70
2012,08,16,07,51,19.70
2012,08,16,07,52,19.80
2012,08,16,07,53,19.80
2012,08,16,07,54,19.80
2012,08,16,07,55,19.80
2012,08,16,07,56,19.80
2012,08,16,07,57,19.80
2012,08,16,07,58,19.80
2012,08,16,07,59,19.80
2012,08,16,08,00,19.80
2012,08,16,08,01,19.90
2012,08,16,08,02,19.90
2012,08,16,08,03,19.90
2012,08,16,08,04,19.90
2012,08,16,08,05,19.90
2012,08,16,08,06,20.00
2012,08,16,08,07,20.10
2012,08,16,08,08,20.20
2012,08,16,08,09,20.30
2012,08,16,08,10,20.50
2012,08,16,08,11,20.60
2012,08,16,08,12,20.80
2012,08,16,08,13,20.90
2012,08,16,08,14,21.00
2012,08,16,08,15,21.10
2012,08,16,08,16,21.30
2012,08,16,08,17,21.30
2012,08,16,08,18,21.40
2012,08,16,08,19,21.60
2012,08,16,08,20,21.60
2012,08,16,08,21,21.70
2012,08,16,08,22,21.70
2012,08,16,08,23,21.80
2012,08,16,08,24,21.90
2012,08,16,08,25,22.00
2012,08,16,08,26,22.00
2012,08,16,08,27,22.00
2012,08,16,08,28,22.10
2012,08,16,08,29,22.20
2012,08,16,08,30,22.30
2012,08,16,08,31,22.30
2012,08,16,08,32,22.30
2012,08,16,08,33,22.40
2012,08,16,08,34,22.40
2012,08,16,08,35,22.40
2012,08,16,08,36,22.50
2012,08,16,08,37,22.50
2012,08,16,08,38,22.60
2012,08,16,08,39,22.70
2012,08,16,08,40,22.70
2012,08,16,08,41,22.80
2012,08,16,08,42,22.80
2012,08,16,08,43,22.80
2012,08,16,08,44,22.80
2012,08,16,08,45,22.80
2012,08,16,08,46,22.80
2012,08,16,08,47,22.80
2012,08,16,08,48,22.70
2012,08,16,08,49,22.80
2012,08,16,08,50,22.80
2012,08,16,08,51,22.80
2012,08,16,08,52,22.80
2012,08,16,08,53,22.80
2012,08,16,08,54,22.80
2012,08,16,08,55,22.80
2012,08,16,08,56,22.90
2012,08,16,08,57,22.90
2012,08,16,08,58,22.90
2012,08,16,08,59,22.90
2012,08,16,09,00,22.90
2012,08,16,09,01,22.90
2012,08,16,09,02,23.00
2012,08,16,09,03,23.10
2012,08,16,09,04,23.10
2012,08,16,09,05,23.10
2012,08,16,09,06,23.10
2012,08,16,09,07,23.10
2012,08,16,09,08,23.10
2012,08,16,09,09,23.10
2012,08,16,09,10,23.10
2012,08,16,09,11,23.10
2012,08,16,09,12,23.10
2012,08,16,09,13,23.10
2012,08,16,09,14,23.10
2012,08,16,09,15,23.10
2012,08,16,09,16,23.10
2012,08,16,09,17,23.10
2012,08,16,09,18,23.00
2012,08,16,09,19,22.90
2012,08,16,09,20,22.90
2012,08,16,09,21,22.90
2012,08,16,09,22,22.90
2012,08,16,09,23,23.00
2012,08,16,09,24,23.10
2012,08,16,09,25,23.10
2012,08,16,09,26,23.20
2012,08,16,09,27,23.30
2012,08,16,09,28,23.50
2012,08,16,09,29,23.60
2012,08,16,09,30,23.70
2012,08,16,09,31,23.70
2012,08,16,09,32,23.70
2012,08,16,09,33,23.80
2012,08,16,09,34,23.90
2012,08,16,09,35,24.00
2012,08,16,09,36,24.10
2012,08,16,09,37,24.10
2012,08,16,09,38,24.10
2012,08,16,09,39,24.20
2012,08,16,09,40,24.20
2012,08,16,09,41,24.30
2012,08,16,09,42,24.30
2012,08,16,09,43,24.30
2012,08,16,09,44,24.30
2012,08,16,09,45,24.30
2012,08,16,09,46,24.40
2012,08,16,09,47,24.40
2012,08,16,09,48,24.50
2012,08,16,09,49,24.50
2012,08,16,09,50,24.50
2012,08,16,09,51,24.60
2012,08,16,09,52,24.70
2012,08,16,09,53,24.80
2012,08,16,09,54,24.80
2012,08,16,09,55,24.90
2012,08,16,09,56,25.00
2012,08,16,09,57,25.00
2012,08,16,09,58,25.00
2012,08,16,09,59,25.00
2012,08,16,10,00,25.00
2012,08,16,10,01,25.10
2012,08,16,10,02,25.20
2012,08,16,10,03,25.20
2012,08,16,10,04,25.20
2012,08,16,10,05,25.20
2012,08,16,10,06,25.20
2012,08,16,10,07,25.30
2012,08,16,10,08,25.30
2012,08,16,10,09,25.30
2012,08,16,10,10,25.30
2012,08,16,10,11,25.40
2012,08,16,10,12,25.40
2012,08,16,10,13,25.40
2012,08,16,10,14,25.50
2012,08,16,10,15,25.60
2012,08,16,10,16,25.60
2012,08,16,10,17,25.60
2012,08,16,10,18,25.60
2012,08,16,10,19,25.60
2012,08,16,10,20,25.60
2012,08,16,10,21,25.50
2012,08,16,10,22,25.40
2012,08,16,10,23,25.40
2012,08,16,10,24,25.40
2012,08,16,10,25,25.50
2012,08,16,10,26,25.70
2012,08,16,10,27,25.80
2012,08,16,10,28,25.80
2012,08,16,10,29,25.80
2012,08,16,10,30,25.70
2012,08,16,10,31,25.50
2012,08,16,10,32,25.50
2012,08,16,10,33,25.50
2012,08,16,10,34,25.60
2012,08,16,10,35,25.60
2012,08,16,10,36,25.70
2012,08,16,10,37,25.70
2012,08,16,10,38,25.60
2012,08,16,10,39,25.60
2012,08,16,10,40,25.60
2012,08,16,10,41,25.50
2012,08,16,10,42,25.50
2012,08,16,10,43,25.50
2012,08,16,10,44,25.60
2012,08,16,10,45,25.70
2012,08,16,10,46,25.80
2012,08,16,10,47,25.80
2012,08,16,10,48,25.90
2012,08,16,10,49,25.90
2012,08,16,10,50,25.90
2012,08,16,10,51,25.80
2012,08,16,10,52,25.70
2012,08,16,10,53,25.50
2012,08,16,10,54,25.40
2012,08,16,10,55,25.30
2012,08,16,10,56,25.20
2012,08,16,10,57,25.10
2012,08,16,10,58,25.00
2012,08,16,10,59,25.00
2012,08,16,11,00,24.90
2012,08,16,11,01,24.90
2012,08,16,11,02,24.90
2012,08,16,11,03,25.00
2012,08,16,11,04,25.10
2012,08,16,11,05,25.20
2012,08,16,11,06,25.20
2012,08,16,11,07,25.30
2012,08,16,11,08,25.30
2012,08,16,11,09,25.20
2012,08,16,11,10,25.20
2012,08,16,11,11,25.10
2012,08,16,11,12,25.10
2012,08,16,11,13,25.10
2012,08,16,11,14,25.00
2012,08,16,11,15,25.00
2012,08,16,11,16,25.00
2012,08,16,11,17,25.00
2012,08,16,11,18,25.00
2012,08,16,11,19,24.90
2012,08,16,11,20,24.80
2012,08,16,11,21,24.80
2012,08,16,11,22,24.70
2012,08,16,11,23,24.60
2012,08,16,11,24,24.60
2012,08,16,11,25,24.60
2012,08,16,11,26,24.60
2012,08,16,11,27,24.60
2012,08,16,11,28,24.60
2012,08,16,11,29,24.60
2012,08,16,11,30,24.60
2012,08,16,11,31,24.60
2012,08,16,11,32,24.60
2012,08,16,11,33,24.60
2012,08,16,11,34,24.60
2012,08,16,11,35,24.60
2012,08,16,11,36,24.60
2012,08,16,11,37,24.70
2012,08,16,11,38,24.70
2012,08,16,11,39,24.70
2012,08,16,11,40,24.70
2012,08,16,11,41,24.80
2012,08,16,11,42,24.90
2012,08,16,11,43,24.90
2012,08,16,11,44,24.90
2012,08,16,11,45,24.90
2012,08,16,11,46,24.90
2012,08,16,11,47,24.90
2012,08,16,11,48,24.90
2012,08,16,11,49,25.00
2012,08,16,11,50,25.10
2012,08,16,11,51,25.20
2012,08,16,11,52,25.20
2012,08,16,11,53,25.30
2012,08,16,11,54,25.40
2012,08,16,11,55,25.50
2012,08,16,11,56,25.70
2012,08,16,11,57,25.90
2012,08,16,11,58,26.00
2012,08,16,11,59,26.10
2012,08,16,12,00,26.10
2012,08,16,12,01,26.00
2012,08,16,12,02,25.90
2012,08,16,12,03,25.90
2012,08,16,12,04,25.80
2012,08,16,12,05,25.80
2012,08,16,12,06,25.90
2012,08,16,12,07,25.90
2012,08,16,12,08,25.90
2012,08,16,12,09,25.90
2012,08,16,12,10,25.90
2012,08,16,12,11,25.90
2012,08,16,12,12,25.80
2012,08,16,12,13,25.80
2012,08,16,12,14,25.80
2012,08,16,12,15,25.80
2012,08,16,12,16,25.80
2012,08,16,12,17,25.80
2012,08,16,12,18,25.80
2012,08,16,12,19,25.90
2012,08,16,12,20,25.90
2012,08,16,12,21,26.00
2012,08,16,12,22,26.00
2012,08,16,12,23,26.10
2012,08,16,12,24,26.10
2012,08,16,12,25,26.10
2012,08,16,12,26,26.20
2012,08,16,12,27,26.20
2012,08,16,12,28,26.30
2012,08,16,12,29,26.30
2012,08,16,12,30,26.40
2012,08,16,12,31,26.40
2012,08,16,12,32,26.40
2012,08,16,12,33,26.50
2012,08,16,12,34,26.60
2012,08,16,12,35,26.60
2012,08,16,12,36,26.60
2012,08,16,12,37,26.60
2012,08,16,12,38,26.70
2012,08,16,12,39,26.70
2012,08,16,12,40,26.70
2012,08,16,12,41,26.60
2012,08,16,12,42,26.50
2012,08,16,12,43,26.40
2012,08,16,12,44,26.30
2012,08,16,12,45,26.30
2012,08,16,12,46,26.40
2012,08,16,12,47,26.40
2012,08,16,12,48,26.40
2012,08,16,12,49,26.40
2012,08,16,12,50,26.40
2012,08,16,12,51,26.40
2012,08,16,12,52,26.30
2012,08,16,12,53,26.20
2012,08,16,12,54,26.10
2012,08,16,12,55,25.90
2012,08,16,12,56,25.90
2012,08,16,12,57,25.80
2012,08,16,12,58,25.80
2012,08,16,12,59,25.70
2012,08,16,13,00,25.60
2012,08,16,13,01,25.60
2012,08,16,13,02,25.50
2012,08,16,13,03,25.50
2012,08,16,13,04,25.50
2012,08,16,13,05,25.50
2012,08,16,13,06,25.40
2012,08,16,13,07,25.40
2012,08,16,13,08,25.40
2012,08,16,13,09,25.30
2012,08,16,13,10,25.30
2012,08,16,13,11,25.40
2012,08,16,13,12,25.40
2012,08,16,13,13,25.40
2012,08,16,13,14,25.40
2012,08,16,13,15,25.50
2012,08,16,13,16,25.50
2012,08,16,13,17,25.60
2012,08,16,13,18,25.60
2012,08,16,13,19,25.60
2012,08,16,13,20,25.50
2012,08,16,13,21,25.50
2012,08,16,13,22,25.60
2012,08,16,13,23,25.60
2012,08,16,13,24,25.60
2012,08,16,13,25,25.60
2012,08,16,13,26,25.60
2012,08,16,13,27,25.50
2012,08,16,13,28,25.50
2012,08,16,13,29,25.40
2012,08,16,13,30,25.30
2012,08,16,13,31,25.30
2012,08,16,13,32,25.30
2012,08,16,13,33,25.40
2012,08,16,13,34,25.40
2012,08,16,13,35,25.40
2012,08,16,13,36,25.40
2012,08,16,13,37,25.50
2012,08,16,13,38,25.50
2012,08,16,13,39,25.50
2012,08,16,13,40,25.50
2012,08,16,13,41,25.50
2012,08,16,13,42,25.60
2012,08,16,13,43,25.70
2012,08,16,13,44,25.70
2012,08,16,13,45,25.70
2012,08,16,13,46,25.80
2012,08,16,13,47,25.70
2012,08,16,13,48,25.80
2012,08,16,13,49,25.90
2012,08,16,13,50,25.90
2012,08,16,13,51,26.00
2012,08,16,13,52,26.10
2012,08,16,13,53,26.20
2012,08,16,13,54,26.30
2012,08,16,13,55,26.30
2012,08,16,13,56,26.40
2012,08,16,13,57,26.40
2012,08,16,13,58,26.40
2012,08,16,13,59,26.40
2012,08,16,14,00,26.40
2012,08,16,14,01,26.30
2012,08,16,14,02,26.30
2012,08,16,14,03,26.20
2012,08,16,14,04,26.20
2012,08,16,14,05,26.20
2012,08,16,14,06,26.30
2012,08,16,14,07,26.40
2012,08,16,14,08,26.60
2012,08,16,14,09,26.70
2012,08,16,14,10,26.80
2012,08,16,14,11,26.90
2012,08,16,14,12,27.20
2012,08,16,14,13,27.30
2012,08,16,14,14,27.50
2012,08,16,14,15,27.60
2012,08,16,14,16,27.60
2012,08,16,14,17,27.50
2012,08,16,14,18,27.40
2012,08,16,14,19,27.30
2012,08,16,14,20,27.20
2012,08,16,14,21,27.20
2012,08,16,14,22,27.20
2012,08,16,14,23,27.10
2012,08,16,14,24,27.10
2012,08,16,14,25,27.20
2012,08,16,14,26,27.20
2012,08,16,14,27,27.10
2012,08,16,14,28,27.10
2012,08,16,14,29,27.10
2012,08,16,14,30,27.10
2012,08,16,14,31,27.00
2012,08,16,14,32,26.90
2012,08,16,14,33,26.90
2012,08,16,14,34,26.80
2012,08,16,14,35,26.70
2012,08,16,14,36,26.70
2012,08,16,14,37,26.60
2012,08,16,14,38,26.60
2012,08,16,14,39,26.60
2012,08,16,14,40,26.50
2012,08,16,14,41,26.40
2012,08,16,14,42,26.40
2012,08,16,14,43,26.40
2012,08,16,14,44,26.40
2012,08,16,14,45,26.50
2012,08,16,14,46,26.60
2012,08,16,14,47,26.70
2012,08,16,14,48,26.70
2012,08,16,14,49,26.70
2012,08,16,14,50,26.80
2012,08,16,14,51,26.90
2012,08,16,14,52,26.90
2012,08,16,14,53,26.90
2012,08,16,14,54,26.90
2012,08,16,14,55,26.90
2012,08,16,14,56,26.90
2012,08,16,14,57,26.80
2012,08,16,14,58,26.70
2012,08,16,14,59,26.70
2012,08,16,15,00,26.70
2012,08,16,15,01,26.70
2012,08,16,15,02,26.70
2012,08,16,15,03,26.70
2012,08,16,15,04,26.60
2012,08,16,15,05,26.50
2012,08,16,15,06,26.40
2012,08,16,15,07,26.30
2012,08,16,15,08,26.30
2012,08,16,15,09,26.20
2012,08,16,15,10,26.10
2012,08,16,15,11,26.20
2012,08,16,15,12,26.30
2012,08,16,15,13,26.40
2012,08,16,15,14,26.60
2012,08,16,15,15,26.60
2012,08,16,15,16,26.60
2012,08,16,15,17,26.60
2012,08,16,15,18,26.70
2012,08,16,15,19,26.80
2012,08,16,15,20,26.90
2012,08,16,15,21,27.10
2012,08,16,15,22,27.20
2012,08,16,15,23,27.30
2012,08,16,15,24,27.30
2012,08,16,15,25,27.30
2012,08,16,15,26,27.30
2012,08,16,15,27,27.20
2012,08,16,15,28,27.10
2012,08,16,15,29,27.00
2012,08,16,15,30,26.90
2012,08,16,15,31,26.90
2012,08,16,15,32,26.80
2012,08,16,15,33,26.70
2012,08,16,15,34,26.70
2012,08,16,15,35,26.60
2012,08,16,15,36,26.60
2012,08,16,15,37,26.60
2012,08,16,15,38,26.60
2012,08,16,15,39,26.40
2012,08,16,15,40,26.40
2012,08,16,15,41,26.40
2012,08,16,15,42,26.40
2012,08,16,15,43,26.50
2012,08,16,15,44,26.60
2012,08,16,15,45,26.50
2012,08,16,15,46,26.40
2012,08,16,15,47,26.40
2012,08,16,15,48,26.40
2012,08,16,15,49,26.40
2012,08,16,15,50,26.40
2012,08,16,15,51,26.30
2012,08,16,15,52,26.30
2012,08,16,15,53,26.30
2012,08,16,15,54,26.20
2012,08,16,15,55,26.30
2012,08,16,15,56,26.50
2012,08,16,15,57,26.60
2012,08,16,15,58,26.80
2012,08,16,15,59,26.90
2012,08,16,16,00,27.00
2012,08,16,16,01,27.20
2012,08,16,16,02,27.30
2012,08,16,16,03,27.30
2012,08,16,16,04,27.30
2012,08,16,16,05,27.30
2012,08,16,16,06,27.30
2012,08,16,16,07,27.20
2012,08,16,16,08,27.10
2012,08,16,16,09,27.10
2012,08,16,16,10,27.10
2012,08,16,16,11,27.10
2012,08,16,16,12,27.10
2012,08,16,16,13,27.10
2012,08,16,16,14,27.20
2012,08,16,16,15,27.30
2012,08,16,16,16,27.30
2012,08,16,16,17,27.30
2012,08,16,16,18,27.30
2012,08,16,16,19,27.40
2012,08,16,16,20,27.40
2012,08,16,16,21,27.40
2012,08,16,16,22,27.40
2012,08,16,16,23,27.40
2012,08,16,16,24,27.40
2012,08,16,16,25,27.40
2012,08,16,16,26,27.40
2012,08,16,16,27,27.50
2012,08,16,16,28,27.70
2012,08,16,16,29,27.70
2012,08,16,16,30,27.70
2012,08,16,16,31,27.80
2012,08,16,16,32,27.90
2012,08,16,16,33,28.00
2012,08,16,16,34,28.00
2012,08,16,16,35,27.90
2012,08,16,16,36,27.90
2012,08,16,16,37,27.90
2012,08,16,16,38,27.90
2012,08,16,16,39,27.80
2012,08,16,16,40,27.80
2012,08,16,16,41,27.70
2012,08,16,16,42,27.70
2012,08,16,16,43,27.70
2012,08,16,16,44,27.70
2012,08,16,16,45,27.70
2012,08,16,16,46,27.70
2012,08,16,16,47,27.60
2012,08,16,16,48,27.60
2012,08,16,16,49,27.60
2012,08,16,16,50,27.50
2012,08,16,16,51,27.40
2012,08,16,16,52,27.50
2012,08,16,16,53,27.60
2012,08,16,16,54,27.70
2012,08,16,16,55,27.70
2012,08,16,16,56,27.70
2012,08,16,16,57,27.70
2012,08,16,16,58,27.70
2012,08,16,16,59,27.70
2012,08,16,17,00,27.70
2012,08,16,17,01,27.90
2012,08,16,17,02,28.00
2012,08,16,17,03,28.20
2012,08,16,17,04,28.50
2012,08,16,17,05,28.80
2012,08,16,17,06,29.00
2012,08,16,17,07,29.20
2012,08,16,17,08,29.30
2012,08,16,17,09,29.40
2012,08,16,17,10,29.50
2012,08,16,17,11,29.40
2012,08,16,17,12,29.50
2012,08,16,17,13,29.70
2012,08,16,17,14,29.80
2012,08,16,17,15,30.10
2012,08,16,17,16,30.30
2012,08,16,17,17,30.50
2012,08,16,17,18,30.70
2012,08,16,17,19,31.00
2012,08,16,17,20,31.00
2012,08,16,17,21,31.00
2012,08,16,17,22,30.90